Terminal Aerodrome Forecast
Issued by NWS Twin Cities, MN

Home | Current Version | Previous Version | Text Only | Print | Product List | Glossary Off
Versions: 1 2 3 4 5 6 7 8 9 10 11 12 13 14 15 16 17 18 19 20 21 22 23 24 25 26

517
FTUS43 KMPX 222039 AAA
TAFMSP
TAF AMD
KMSP 222039Z 2221/2324 29011KT P6SM SCT050 SCT250
     FM230100 34005KT P6SM SCT050 BKN090
     FM231400 35012KT P6SM OVC035 PROB30 2316/2322 -SHRA=

USA.gov is the U.S. government's official web portal to all federal, state and local government web resources and services.